Location: Buckeye Ditch
(40.9104°N, 122.9517°W)
Time: 16:01:52
(UTC+00:00)

A-11 Canister half - Pass Details

Date: 22 May 2025
Orbit: 1515 x 1684 km, 47.2° (Epoch: 14 June)

Event Time Altitude Azimuth Distance (km) Brightness Sun altitude
Rises 09:08:08 0° 267° (W) 4,752 11.4 -27.1°
Reaches altitude 10° 09:11:19 10° 271° (W) 3,747 10.9 -26.9°
Maximum altitude 09:20:39 62° 351° (N) 1,695 9.3 -26.4°
Drops below altitude 10° 09:29:48 10° 72° (ENE) 3,676 11.5 -25.8°
Sets 09:32:54 0° 76° (ENE) 4,658 12.0 -25.6°
